#datetime,building,power
2023-01-30T00:00:00,mcc,53.04
2023-01-30T00:01:00,mcc,48.69
2023-01-30T00:02:00,mcc,41.94
2023-01-30T00:03:00,mcc,42.88
2023-01-30T00:04:00,mcc,42.93
2023-01-30T00:05:00,mcc,59.48
2023-01-30T00:06:00,mcc,45.47
2023-01-30T00:07:00,mcc,42.96
2023-01-30T00:08:00,mcc,43.56
2023-01-30T00:09:00,mcc,43.94
2023-01-30T00:10:00,mcc,43.77
2023-01-30T00:11:00,mcc,42.69
2023-01-30T00:12:00,mcc,40.08
2023-01-30T00:13:00,mcc,40.88
2023-01-30T00:14:00,mcc,46.70
2023-01-30T00:15:00,mcc,37.51
2023-01-30T00:16:00,mcc,37.31
2023-01-30T00:17:00,mcc,37.67
2023-01-30T00:18:00,mcc,37.53
2023-01-30T00:19:00,mcc,38.88
2023-01-30T00:20:00,mcc,38.59
2023-01-30T00:21:00,mcc,38.26
2023-01-30T00:22:00,mcc,36.52
2023-01-30T00:23:00,mcc,35.98
2023-01-30T00:24:00,mcc,36.11
2023-01-30T00:25:00,mcc,37.88
2023-01-30T00:26:00,mcc,38.46
2023-01-30T00:27:00,mcc,36.99
2023-01-30T00:28:00,mcc,35.23
2023-01-30T00:29:00,mcc,35.24
2023-01-30T00:30:00,mcc,35.63
2023-01-30T00:31:00,mcc,34.87
2023-01-30T00:32:00,mcc,36.18
2023-01-30T00:33:00,mcc,33.95
2023-01-30T00:34:00,mcc,32.77
2023-01-30T00:35:00,mcc,32.57
2023-01-30T00:36:00,mcc,32.52
2023-01-30T00:37:00,mcc,33.55
2023-01-30T00:38:00,mcc,33.94
2023-01-30T00:39:00,mcc,35.17
2023-01-30T00:40:00,mcc,35.27
2023-01-30T00:41:00,mcc,33.71
2023-01-30T00:42:00,mcc,36.00
2023-01-30T00:43:00,mcc,35.68
2023-01-30T00:44:00,mcc,37.43
2023-01-30T00:45:00,mcc,37.12
2023-01-30T00:46:00,mcc,37.19
2023-01-30T00:47:00,mcc,34.39
2023-01-30T00:48:00,mcc,34.33
2023-01-30T00:49:00,mcc,33.77
2023-01-30T00:50:00,mcc,31.67
2023-01-30T00:51:00,mcc,31.39
2023-01-30T00:52:00,mcc,38.72
2023-01-30T00:53:00,mcc,35.61
2023-01-30T00:54:00,mcc,34.26
2023-01-30T00:55:00,mcc,35.62
2023-01-30T00:56:00,mcc,35.16
2023-01-30T00:57:00,mcc,35.83
2023-01-30T00:58:00,mcc,34.13
2023-01-30T00:59:00,mcc,32.77
2023-01-30T01:00:00,mcc,32.67
2023-01-30T01:01:00,mcc,34.88
2023-01-30T01:02:00,mcc,33.16
2023-01-30T01:03:00,mcc,33.08
2023-01-30T01:04:00,mcc,32.42
2023-01-30T01:05:00,mcc,32.76
2023-01-30T01:06:00,mcc,33.80
2023-01-30T01:07:00,mcc,34.00
2023-01-30T01:08:00,mcc,35.21
2023-01-30T01:09:00,mcc,34.50
2023-01-30T01:10:00,mcc,35.14
2023-01-30T01:11:00,mcc,35.78
2023-01-30T01:12:00,mcc,43.41
2023-01-30T01:13:00,mcc,35.04
2023-01-30T01:14:00,mcc,35.45
2023-01-30T01:15:00,mcc,35.74
2023-01-30T01:16:00,mcc,38.47
2023-01-30T01:17:00,mcc,36.95
2023-01-30T01:18:00,mcc,34.09
2023-01-30T01:19:00,mcc,34.90
2023-01-30T01:20:00,mcc,37.54
2023-01-30T01:21:00,mcc,37.83
2023-01-30T01:22:00,mcc,35.05
2023-01-30T01:23:00,mcc,35.92
2023-01-30T01:24:00,mcc,33.87
2023-01-30T01:25:00,mcc,33.33
2023-01-30T01:26:00,mcc,31.58
2023-01-30T01:27:00,mcc,31.49
2023-01-30T01:28:00,mcc,30.55
2023-01-30T01:29:00,mcc,30.89
2023-01-30T01:30:00,mcc,32.24
2023-01-30T01:31:00,mcc,34.47
2023-01-30T01:32:00,mcc,43.40
2023-01-30T01:33:00,mcc,34.14
2023-01-30T01:34:00,mcc,33.82
2023-01-30T01:35:00,mcc,32.29
2023-01-30T01:36:00,mcc,32.08
2023-01-30T01:37:00,mcc,32.20
2023-01-30T01:38:00,mcc,31.89
2023-01-30T01:39:00,mcc,31.12
2023-01-30T01:40:00,mcc,29.60
2023-01-30T01:41:00,mcc,30.17
2023-01-30T01:42:00,mcc,33.28
2023-01-30T01:43:00,mcc,35.31
2023-01-30T01:44:00,mcc,34.23
2023-01-30T01:45:00,mcc,34.54
2023-01-30T01:46:00,mcc,32.87
2023-01-30T01:47:00,mcc,34.78
2023-01-30T01:48:00,mcc,33.36
2023-01-30T01:49:00,mcc,32.40
2023-01-30T01:50:00,mcc,32.01
2023-01-30T01:51:00,mcc,40.62
2023-01-30T01:52:00,mcc,33.25
2023-01-30T01:53:00,mcc,32.28
2023-01-30T01:54:00,mcc,31.80
2023-01-30T01:55:00,mcc,32.26
2023-01-30T01:56:00,mcc,33.00
2023-01-30T01:57:00,mcc,32.35
2023-01-30T01:58:00,mcc,42.03
2023-01-30T01:59:00,mcc,41.71
2023-01-30T02:00:00,mcc,41.62
2023-01-30T02:01:00,mcc,30.68
2023-01-30T02:02:00,mcc,30.29
2023-01-30T02:03:00,mcc,30.45
2023-01-30T02:04:00,mcc,31.68
2023-01-30T02:05:00,mcc,32.40
2023-01-30T02:06:00,mcc,32.20
2023-01-30T02:07:00,mcc,33.54
2023-01-30T02:08:00,mcc,31.92
2023-01-30T02:09:00,mcc,31.53
2023-01-30T02:10:00,mcc,32.34
2023-01-30T02:11:00,mcc,30.37
2023-01-30T02:12:00,mcc,31.46
2023-01-30T02:13:00,mcc,34.33
2023-01-30T02:14:00,mcc,36.30
2023-01-30T02:15:00,mcc,37.43
2023-01-30T02:16:00,mcc,37.17
2023-01-30T02:17:00,mcc,34.82
2023-01-30T02:18:00,mcc,35.03
2023-01-30T02:19:00,mcc,34.81
2023-01-30T02:20:00,mcc,34.90
2023-01-30T02:21:00,mcc,33.65
2023-01-30T02:22:00,mcc,32.05
2023-01-30T02:23:00,mcc,32.40
2023-01-30T02:24:00,mcc,30.83
2023-01-30T02:25:00,mcc,32.08
2023-01-30T02:26:00,mcc,30.56
2023-01-30T02:27:00,mcc,31.70
2023-01-30T02:28:00,mcc,32.96
2023-01-30T02:29:00,mcc,39.84
2023-01-30T02:30:00,mcc,31.50
2023-01-30T02:31:00,mcc,30.43
2023-01-30T02:32:00,mcc,30.32
2023-01-30T02:33:00,mcc,30.16
2023-01-30T02:34:00,mcc,30.01
2023-01-30T02:35:00,mcc,33.45
2023-01-30T02:36:00,mcc,33.45
2023-01-30T02:37:00,mcc,34.83
2023-01-30T02:38:00,mcc,31.45
2023-01-30T02:39:00,mcc,32.05
2023-01-30T02:40:00,mcc,31.15
2023-01-30T02:41:00,mcc,32.80
2023-01-30T02:42:00,mcc,33.67
2023-01-30T02:43:00,mcc,33.69
2023-01-30T02:44:00,mcc,34.18
2023-01-30T02:45:00,mcc,34.98
2023-01-30T02:46:00,mcc,35.76
2023-01-30T02:47:00,mcc,34.73
2023-01-30T02:48:00,mcc,31.87
2023-01-30T02:49:00,mcc,32.42
2023-01-30T02:50:00,mcc,33.65
2023-01-30T02:51:00,mcc,34.43
2023-01-30T02:52:00,mcc,32.97
2023-01-30T02:53:00,mcc,33.19
2023-01-30T02:54:00,mcc,32.52
2023-01-30T02:55:00,mcc,32.86
2023-01-30T02:56:00,mcc,31.52
2023-01-30T02:57:00,mcc,30.83
2023-01-30T02:58:00,mcc,30.26
2023-01-30T02:59:00,mcc,30.40
2023-01-30T03:00:00,mcc,29.58
2023-01-30T03:01:00,mcc,29.29
2023-01-30T03:02:00,mcc,30.35
2023-01-30T03:03:00,mcc,31.36
2023-01-30T03:04:00,mcc,30.83
2023-01-30T03:05:00,mcc,31.49
2023-01-30T03:06:00,mcc,31.65
2023-01-30T03:07:00,mcc,31.91
2023-01-30T03:08:00,mcc,33.65
2023-01-30T03:09:00,mcc,34.57
2023-01-30T03:10:00,mcc,36.81
2023-01-30T03:11:00,mcc,36.90
2023-01-30T03:12:00,mcc,37.37
2023-01-30T03:13:00,mcc,35.06
2023-01-30T03:14:00,mcc,34.29
2023-01-30T03:15:00,mcc,33.01
2023-01-30T03:16:00,mcc,33.40
2023-01-30T03:17:00,mcc,34.33
2023-01-30T03:18:00,mcc,34.70
2023-01-30T03:19:00,mcc,33.45
2023-01-30T03:20:00,mcc,32.77
2023-01-30T03:21:00,mcc,31.78
2023-01-30T03:22:00,mcc,43.83
2023-01-30T03:23:00,mcc,33.27
2023-01-30T03:24:00,mcc,33.22
2023-01-30T03:25:00,mcc,34.91
2023-01-30T03:26:00,mcc,43.10
2023-01-30T03:27:00,mcc,35.49
2023-01-30T03:28:00,mcc,33.33
2023-01-30T03:29:00,mcc,31.56
2023-01-30T03:30:00,mcc,30.80
2023-01-30T03:31:00,mcc,31.23
2023-01-30T03:32:00,mcc,33.20
2023-01-30T03:33:00,mcc,33.74
2023-01-30T03:34:00,mcc,34.25
2023-01-30T03:35:00,mcc,33.96
2023-01-30T03:36:00,mcc,34.51
2023-01-30T03:37:00,mcc,34.77
2023-01-30T03:38:00,mcc,33.78
2023-01-30T03:39:00,mcc,34.42
2023-01-30T03:40:00,mcc,34.27
2023-01-30T03:41:00,mcc,34.30
2023-01-30T03:42:00,mcc,35.42
2023-01-30T03:43:00,mcc,34.63
2023-01-30T03:44:00,mcc,33.06
2023-01-30T03:45:00,mcc,32.87
2023-01-30T03:46:00,mcc,31.75
2023-01-30T03:47:00,mcc,30.72
2023-01-30T03:48:00,mcc,30.71
2023-01-30T03:49:00,mcc,33.17
2023-01-30T03:50:00,mcc,37.49
2023-01-30T03:51:00,mcc,37.56
2023-01-30T03:52:00,mcc,36.38
2023-01-30T03:53:00,mcc,36.28
2023-01-30T03:54:00,mcc,35.77
2023-01-30T03:55:00,mcc,35.20
2023-01-30T03:56:00,mcc,35.35
2023-01-30T03:57:00,mcc,38.14
2023-01-30T03:58:00,mcc,34.20
2023-01-30T03:59:00,mcc,34.36
2023-01-30T04:00:00,mcc,33.38
2023-01-30T04:01:00,mcc,33.91
2023-01-30T04:02:00,mcc,35.44
2023-01-30T04:03:00,mcc,36.11
2023-01-30T04:04:00,mcc,33.97
2023-01-30T04:05:00,mcc,33.82
2023-01-30T04:06:00,mcc,34.05
2023-01-30T04:07:00,mcc,33.82
2023-01-30T04:08:00,mcc,32.80
2023-01-30T04:09:00,mcc,31.43
2023-01-30T04:10:00,mcc,32.10
2023-01-30T04:11:00,mcc,32.79
2023-01-30T04:12:00,mcc,36.12
2023-01-30T04:13:00,mcc,35.61
2023-01-30T04:14:00,mcc,33.72
2023-01-30T04:15:00,mcc,32.75
2023-01-30T04:16:00,mcc,31.75
2023-01-30T04:17:00,mcc,30.51
2023-01-30T04:18:00,mcc,36.31
2023-01-30T04:19:00,mcc,38.39
2023-01-30T04:20:00,mcc,38.66
2023-01-30T04:21:00,mcc,39.32
2023-01-30T04:22:00,mcc,32.28
2023-01-30T04:23:00,mcc,30.74
2023-01-30T04:24:00,mcc,38.00
2023-01-30T04:25:00,mcc,31.40
2023-01-30T04:26:00,mcc,31.03
2023-01-30T04:27:00,mcc,32.08
2023-01-30T04:28:00,mcc,34.51
2023-01-30T04:29:00,mcc,34.56
2023-01-30T04:30:00,mcc,34.81
2023-01-30T04:31:00,mcc,31.93
2023-01-30T04:32:00,mcc,31.68
2023-01-30T04:33:00,mcc,31.63
2023-01-30T04:34:00,mcc,30.57
2023-01-30T04:35:00,mcc,31.23
2023-01-30T04:36:00,mcc,31.78
2023-01-30T04:37:00,mcc,32.05
2023-01-30T04:38:00,mcc,30.46
2023-01-30T04:39:00,mcc,29.32
2023-01-30T04:40:00,mcc,29.94
2023-01-30T04:41:00,mcc,31.64
2023-01-30T04:42:00,mcc,32.41
2023-01-30T04:43:00,mcc,33.85
2023-01-30T04:44:00,mcc,35.19
2023-01-30T04:45:00,mcc,33.88
2023-01-30T04:46:00,mcc,32.67
2023-01-30T04:47:00,mcc,31.13
2023-01-30T04:48:00,mcc,31.09
2023-01-30T04:49:00,mcc,30.06
2023-01-30T04:50:00,mcc,30.47
2023-01-30T04:51:00,mcc,33.05
2023-01-30T04:52:00,mcc,34.42
2023-01-30T04:53:00,mcc,32.61
2023-01-30T04:54:00,mcc,32.38
2023-01-30T04:55:00,mcc,32.54
2023-01-30T04:56:00,mcc,34.64
2023-01-30T04:57:00,mcc,34.83
2023-01-30T04:58:00,mcc,35.16
2023-01-30T04:59:00,mcc,33.47
2023-01-30T05:00:00,mcc,35.36
2023-01-30T05:01:00,mcc,41.65
2023-01-30T05:02:00,mcc,33.71
2023-01-30T05:03:00,mcc,32.67
2023-01-30T05:04:00,mcc,31.31
2023-01-30T05:05:00,mcc,31.98
2023-01-30T05:06:00,mcc,31.42
2023-01-30T05:07:00,mcc,32.83
2023-01-30T05:08:00,mcc,33.37
2023-01-30T05:09:00,mcc,33.50
2023-01-30T05:10:00,mcc,34.01
2023-01-30T05:11:00,mcc,34.73
2023-01-30T05:12:00,mcc,35.12
2023-01-30T05:13:00,mcc,35.91
2023-01-30T05:14:00,mcc,34.45
2023-01-30T05:15:00,mcc,34.49
2023-01-30T05:16:00,mcc,33.69
2023-01-30T05:17:00,mcc,33.10
2023-01-30T05:18:00,mcc,33.07
2023-01-30T05:19:00,mcc,32.64
2023-01-30T05:20:00,mcc,40.51
2023-01-30T05:21:00,mcc,31.76
2023-01-30T05:22:00,mcc,31.98
2023-01-30T05:23:00,mcc,32.13
2023-01-30T05:24:00,mcc,34.34
2023-01-30T05:25:00,mcc,35.70
2023-01-30T05:26:00,mcc,34.90
2023-01-30T05:27:00,mcc,33.83
2023-01-30T05:28:00,mcc,33.74
2023-01-30T05:29:00,mcc,32.60
2023-01-30T05:30:00,mcc,31.64
2023-01-30T05:31:00,mcc,31.76
2023-01-30T05:32:00,mcc,32.74
2023-01-30T05:33:00,mcc,33.01
2023-01-30T05:34:00,mcc,31.99
2023-01-30T05:35:00,mcc,31.11
2023-01-30T05:36:00,mcc,31.20
2023-01-30T05:37:00,mcc,31.05
2023-01-30T05:38:00,mcc,39.99
2023-01-30T05:39:00,mcc,33.19
2023-01-30T05:40:00,mcc,33.26
2023-01-30T05:41:00,mcc,35.25
2023-01-30T05:42:00,mcc,35.67
2023-01-30T05:43:00,mcc,36.50
2023-01-30T05:44:00,mcc,35.43
2023-01-30T05:45:00,mcc,34.49
2023-01-30T05:46:00,mcc,32.24
2023-01-30T05:47:00,mcc,32.88
2023-01-30T05:48:00,mcc,32.66
2023-01-30T05:49:00,mcc,31.72
2023-01-30T05:50:00,mcc,33.62
2023-01-30T05:51:00,mcc,35.11
2023-01-30T05:52:00,mcc,35.98
2023-01-30T05:53:00,mcc,34.42
2023-01-30T05:54:00,mcc,33.62
2023-01-30T05:55:00,mcc,33.08
2023-01-30T05:56:00,mcc,33.72
2023-01-30T05:57:00,mcc,39.12
2023-01-30T05:58:00,mcc,30.04
2023-01-30T05:59:00,mcc,31.19
2023-01-30T06:00:00,mcc,30.52
2023-01-30T06:01:00,mcc,30.95
2023-01-30T06:02:00,mcc,39.54
2023-01-30T06:03:00,mcc,38.71
2023-01-30T06:04:00,mcc,39.40
2023-01-30T06:05:00,mcc,30.45
2023-01-30T06:06:00,mcc,32.33
2023-01-30T06:07:00,mcc,31.84
2023-01-30T06:08:00,mcc,30.67
2023-01-30T06:09:00,mcc,29.93
2023-01-30T06:10:00,mcc,31.20
2023-01-30T06:11:00,mcc,33.31
2023-01-30T06:12:00,mcc,33.65
2023-01-30T06:13:00,mcc,33.67
2023-01-30T06:14:00,mcc,34.58
2023-01-30T06:15:00,mcc,35.52
2023-01-30T06:16:00,mcc,42.95
2023-01-30T06:17:00,mcc,34.85
2023-01-30T06:18:00,mcc,33.42
2023-01-30T06:19:00,mcc,33.04
2023-01-30T06:20:00,mcc,30.73
2023-01-30T06:21:00,mcc,32.47
2023-01-30T06:22:00,mcc,36.08
2023-01-30T06:23:00,mcc,33.54
2023-01-30T06:24:00,mcc,34.06
2023-01-30T06:25:00,mcc,33.77
2023-01-30T06:26:00,mcc,33.95
2023-01-30T06:27:00,mcc,38.93
2023-01-30T06:28:00,mcc,41.52
2023-01-30T06:29:00,mcc,40.97
2023-01-30T06:30:00,mcc,40.40
2023-01-30T06:31:00,mcc,43.90
2023-01-30T06:32:00,mcc,40.52
2023-01-30T06:33:00,mcc,47.87
2023-01-30T06:34:00,mcc,48.14
2023-01-30T06:35:00,mcc,56.61
2023-01-30T06:36:00,mcc,40.30
2023-01-30T06:37:00,mcc,54.49
2023-01-30T06:38:00,mcc,45.30
2023-01-30T06:39:00,mcc,46.60
2023-01-30T06:40:00,mcc,46.20
2023-01-30T06:41:00,mcc,44.37
2023-01-30T06:42:00,mcc,43.91
2023-01-30T06:43:00,mcc,57.73
2023-01-30T06:44:00,mcc,47.07
2023-01-30T06:45:00,mcc,57.19
2023-01-30T06:46:00,mcc,57.40
2023-01-30T06:47:00,mcc,56.81
2023-01-30T06:48:00,mcc,56.70
2023-01-30T06:49:00,mcc,57.10
2023-01-30T06:50:00,mcc,56.22
2023-01-30T06:51:00,mcc,54.24
2023-01-30T06:52:00,mcc,53.63
2023-01-30T06:53:00,mcc,54.93
2023-01-30T06:54:00,mcc,65.68
2023-01-30T06:55:00,mcc,57.82
2023-01-30T06:56:00,mcc,54.38
2023-01-30T06:57:00,mcc,54.30
2023-01-30T06:58:00,mcc,52.78
2023-01-30T06:59:00,mcc,45.50
2023-01-30T07:00:00,mcc,46.30
2023-01-30T07:01:00,mcc,51.22
2023-01-30T07:02:00,mcc,49.44
2023-01-30T07:03:00,mcc,49.50
2023-01-30T07:04:00,mcc,51.39
2023-01-30T07:05:00,mcc,55.31
2023-01-30T07:06:00,mcc,50.52
2023-01-30T07:07:00,mcc,47.75
2023-01-30T07:08:00,mcc,46.14
2023-01-30T07:09:00,mcc,55.13
2023-01-30T07:10:00,mcc,48.05
2023-01-30T07:11:00,mcc,48.81
2023-01-30T07:12:00,mcc,51.00
2023-01-30T07:13:00,mcc,60.80
2023-01-30T07:14:00,mcc,52.91
2023-01-30T07:15:00,mcc,59.79
2023-01-30T07:16:00,mcc,57.65
2023-01-30T07:17:00,mcc,50.91
2023-01-30T07:18:00,mcc,49.34
2023-01-30T07:19:00,mcc,50.15
2023-01-30T07:20:00,mcc,50.37
2023-01-30T07:21:00,mcc,48.52
2023-01-30T07:22:00,mcc,57.63
2023-01-30T07:23:00,mcc,54.41
2023-01-30T07:24:00,mcc,49.37
2023-01-30T07:25:00,mcc,65.02
2023-01-30T07:26:00,mcc,49.19
2023-01-30T07:27:00,mcc,59.29
2023-01-30T07:28:00,mcc,59.18
2023-01-30T07:29:00,mcc,56.93
2023-01-30T07:30:00,mcc,56.73
2023-01-30T07:31:00,mcc,56.29
2023-01-30T07:32:00,mcc,63.46
2023-01-30T07:33:00,mcc,69.67
2023-01-30T07:34:00,mcc,54.29
2023-01-30T07:35:00,mcc,47.18
2023-01-30T07:36:00,mcc,49.41
2023-01-30T07:37:00,mcc,49.58
2023-01-30T07:38:00,mcc,59.56
2023-01-30T07:39:00,mcc,52.98
2023-01-30T07:40:00,mcc,58.76
2023-01-30T07:41:00,mcc,50.05
2023-01-30T07:42:00,mcc,50.27
2023-01-30T07:43:00,mcc,49.72
2023-01-30T07:44:00,mcc,64.22
2023-01-30T07:45:00,mcc,58.42
2023-01-30T07:46:00,mcc,57.81
2023-01-30T07:47:00,mcc,49.23
2023-01-30T07:48:00,mcc,50.19
2023-01-30T07:49:00,mcc,50.96
2023-01-30T07:50:00,mcc,58.08
2023-01-30T07:51:00,mcc,67.15
2023-01-30T07:52:00,mcc,51.04
2023-01-30T07:53:00,mcc,50.49
2023-01-30T07:54:00,mcc,49.11
2023-01-30T07:55:00,mcc,50.73
2023-01-30T07:56:00,mcc,51.29
2023-01-30T07:57:00,mcc,57.65
2023-01-30T07:58:00,mcc,52.09
2023-01-30T07:59:00,mcc,51.60
2023-01-30T08:00:00,mcc,51.83
2023-01-30T08:01:00,mcc,68.19
2023-01-30T08:02:00,mcc,52.11
2023-01-30T08:03:00,mcc,54.32
2023-01-30T08:04:00,mcc,52.93
2023-01-30T08:05:00,mcc,47.68
2023-01-30T08:06:00,mcc,48.61
2023-01-30T08:07:00,mcc,48.35
2023-01-30T08:08:00,mcc,56.78
2023-01-30T08:09:00,mcc,59.68
2023-01-30T08:10:00,mcc,59.89
2023-01-30T08:11:00,mcc,58.57
2023-01-30T08:12:00,mcc,57.16
2023-01-30T08:13:00,mcc,55.25
2023-01-30T08:14:00,mcc,71.39
2023-01-30T08:15:00,mcc,70.64
2023-01-30T08:16:00,mcc,75.69
2023-01-30T08:17:00,mcc,64.42
2023-01-30T08:18:00,mcc,73.12
2023-01-30T08:19:00,mcc,48.45
2023-01-30T08:20:00,mcc,58.21
2023-01-30T08:21:00,mcc,63.95
2023-01-30T08:22:00,mcc,69.48
2023-01-30T08:23:00,mcc,79.57
2023-01-30T08:24:00,mcc,63.08
2023-01-30T08:25:00,mcc,53.72
2023-01-30T08:26:00,mcc,59.38
2023-01-30T08:27:00,mcc,71.94
2023-01-30T08:28:00,mcc,54.11
2023-01-30T08:29:00,mcc,62.32
2023-01-30T08:30:00,mcc,70.11
2023-01-30T08:31:00,mcc,52.22
2023-01-30T08:32:00,mcc,60.33
2023-01-30T08:33:00,mcc,50.33
2023-01-30T08:34:00,mcc,61.38
2023-01-30T08:35:00,mcc,53.59
2023-01-30T08:36:00,mcc,62.04
2023-01-30T08:37:00,mcc,62.96
2023-01-30T08:38:00,mcc,72.08
2023-01-30T08:39:00,mcc,62.62
2023-01-30T08:40:00,mcc,55.33
2023-01-30T08:41:00,mcc,54.59
2023-01-30T08:42:00,mcc,61.00
2023-01-30T08:43:00,mcc,62.78
2023-01-30T08:44:00,mcc,56.75
2023-01-30T08:45:00,mcc,63.09
2023-01-30T08:46:00,mcc,62.67
2023-01-30T08:47:00,mcc,54.89
2023-01-30T08:48:00,mcc,57.23
2023-01-30T08:49:00,mcc,53.27
2023-01-30T08:50:00,mcc,62.34
2023-01-30T08:51:00,mcc,60.77
2023-01-30T08:52:00,mcc,60.29
2023-01-30T08:53:00,mcc,60.77
2023-01-30T08:54:00,mcc,58.14
2023-01-30T08:55:00,mcc,57.46
2023-01-30T08:56:00,mcc,56.93
2023-01-30T08:57:00,mcc,54.20
2023-01-30T08:58:00,mcc,66.73
2023-01-30T08:59:00,mcc,61.97
2023-01-30T09:00:00,mcc,71.63
2023-01-30T09:01:00,mcc,72.08
2023-01-30T09:02:00,mcc,62.15
2023-01-30T09:03:00,mcc,62.02
2023-01-30T09:04:00,mcc,65.06
2023-01-30T09:05:00,mcc,75.21
2023-01-30T09:06:00,mcc,65.98
2023-01-30T09:07:00,mcc,63.46
2023-01-30T09:08:00,mcc,60.33
2023-01-30T09:09:00,mcc,64.54
2023-01-30T09:10:00,mcc,61.35
2023-01-30T09:11:00,mcc,75.20
2023-01-30T09:12:00,mcc,55.30
2023-01-30T09:13:00,mcc,58.29
2023-01-30T09:14:00,mcc,74.06
2023-01-30T09:15:00,mcc,59.32
2023-01-30T09:16:00,mcc,67.09
2023-01-30T09:17:00,mcc,59.03
2023-01-30T09:18:00,mcc,62.22
2023-01-30T09:19:00,mcc,70.40
2023-01-30T09:20:00,mcc,78.23
2023-01-30T09:21:00,mcc,69.01
2023-01-30T09:22:00,mcc,66.06
2023-01-30T09:23:00,mcc,82.03
2023-01-30T09:24:00,mcc,67.54
2023-01-30T09:25:00,mcc,66.43
2023-01-30T09:26:00,mcc,66.83
2023-01-30T09:27:00,mcc,76.54
2023-01-30T09:28:00,mcc,67.02
2023-01-30T09:29:00,mcc,63.41
2023-01-30T09:30:00,mcc,63.57
2023-01-30T09:31:00,mcc,66.32
2023-01-30T09:32:00,mcc,62.50
2023-01-30T09:33:00,mcc,55.97
2023-01-30T09:34:00,mcc,69.33
2023-01-30T09:35:00,mcc,65.33
2023-01-30T09:36:00,mcc,74.20
2023-01-30T09:37:00,mcc,61.21
2023-01-30T09:38:00,mcc,57.78
2023-01-30T09:39:00,mcc,57.83
2023-01-30T09:40:00,mcc,71.30
2023-01-30T09:41:00,mcc,54.39
2023-01-30T09:42:00,mcc,52.94
2023-01-30T09:43:00,mcc,58.53
2023-01-30T09:44:00,mcc,52.78
2023-01-30T09:45:00,mcc,56.14
2023-01-30T09:46:00,mcc,54.62
2023-01-30T09:47:00,mcc,52.60
2023-01-30T09:48:00,mcc,61.25
2023-01-30T09:49:00,mcc,53.98
2023-01-30T09:50:00,mcc,62.32
2023-01-30T09:51:00,mcc,54.67
2023-01-30T09:52:00,mcc,57.02
2023-01-30T09:53:00,mcc,61.48
2023-01-30T09:54:00,mcc,54.30
2023-01-30T09:55:00,mcc,53.40
2023-01-30T09:56:00,mcc,55.64
2023-01-30T09:57:00,mcc,59.58
2023-01-30T09:58:00,mcc,59.53
2023-01-30T09:59:00,mcc,57.30
2023-01-30T10:00:00,mcc,66.96
2023-01-30T10:01:00,mcc,66.85
2023-01-30T10:02:00,mcc,57.99
2023-01-30T10:03:00,mcc,57.92
2023-01-30T10:04:00,mcc,54.91
2023-01-30T10:05:00,mcc,72.86
2023-01-30T10:06:00,mcc,68.00
2023-01-30T10:07:00,mcc,72.28
2023-01-30T10:08:00,mcc,66.69
2023-01-30T10:09:00,mcc,56.08
2023-01-30T10:10:00,mcc,57.78
2023-01-30T10:11:00,mcc,56.42
2023-01-30T10:12:00,mcc,53.36
2023-01-30T10:13:00,mcc,56.28
2023-01-30T10:14:00,mcc,56.46
2023-01-30T10:15:00,mcc,56.33
2023-01-30T10:16:00,mcc,57.01
2023-01-30T10:17:00,mcc,57.07
2023-01-30T10:18:00,mcc,55.12
2023-01-30T10:19:00,mcc,56.05
2023-01-30T10:20:00,mcc,62.59
2023-01-30T10:21:00,mcc,58.49
2023-01-30T10:22:00,mcc,58.92
2023-01-30T10:23:00,mcc,58.50
2023-01-30T10:24:00,mcc,60.41
2023-01-30T10:25:00,mcc,60.11
2023-01-30T10:26:00,mcc,56.31
2023-01-30T10:27:00,mcc,58.91
2023-01-30T10:28:00,mcc,57.87
2023-01-30T10:29:00,mcc,70.51
2023-01-30T10:30:00,mcc,58.24
2023-01-30T10:31:00,mcc,58.05
2023-01-30T10:32:00,mcc,58.20
2023-01-30T10:33:00,mcc,64.03
2023-01-30T10:34:00,mcc,57.47
2023-01-30T10:35:00,mcc,58.36
2023-01-30T10:36:00,mcc,54.80
2023-01-30T10:37:00,mcc,55.19
2023-01-30T10:38:00,mcc,57.15
2023-01-30T10:39:00,mcc,71.12
2023-01-30T10:40:00,mcc,55.47
2023-01-30T10:41:00,mcc,55.28
2023-01-30T10:42:00,mcc,55.62
2023-01-30T10:43:00,mcc,53.52
2023-01-30T10:44:00,mcc,54.75
2023-01-30T10:45:00,mcc,65.59
2023-01-30T10:46:00,mcc,57.43
2023-01-30T10:47:00,mcc,56.35
2023-01-30T10:48:00,mcc,60.86
2023-01-30T10:49:00,mcc,61.44
2023-01-30T10:50:00,mcc,60.18
2023-01-30T10:51:00,mcc,60.64
2023-01-30T10:52:00,mcc,56.68
2023-01-30T10:53:00,mcc,58.20
2023-01-30T10:54:00,mcc,60.22
2023-01-30T10:55:00,mcc,56.56
2023-01-30T10:56:00,mcc,55.95
2023-01-30T10:57:00,mcc,63.98
2023-01-30T10:58:00,mcc,63.78
2023-01-30T10:59:00,mcc,57.26
2023-01-30T11:00:00,mcc,59.47
2023-01-30T11:01:00,mcc,56.47
2023-01-30T11:02:00,mcc,56.63
2023-01-30T11:03:00,mcc,58.36
2023-01-30T11:04:00,mcc,59.57
2023-01-30T11:05:00,mcc,61.29
2023-01-30T11:06:00,mcc,56.71
2023-01-30T11:07:00,mcc,58.91
2023-01-30T11:08:00,mcc,57.08
2023-01-30T11:09:00,mcc,61.16
2023-01-30T11:10:00,mcc,60.12
2023-01-30T11:11:00,mcc,69.95
2023-01-30T11:12:00,mcc,58.89
2023-01-30T11:13:00,mcc,59.21
2023-01-30T11:14:00,mcc,64.49
2023-01-30T11:15:00,mcc,68.46
2023-01-30T11:16:00,mcc,62.22
2023-01-30T11:17:00,mcc,86.15
2023-01-30T11:18:00,mcc,69.82
2023-01-30T11:19:00,mcc,67.98
2023-01-30T11:20:00,mcc,69.24
2023-01-30T11:21:00,mcc,56.76
2023-01-30T11:22:00,mcc,60.17
2023-01-30T11:23:00,mcc,60.84
2023-01-30T11:24:00,mcc,59.21
2023-01-30T11:25:00,mcc,65.69
2023-01-30T11:26:00,mcc,57.97
2023-01-30T11:27:00,mcc,57.44
2023-01-30T11:28:00,mcc,58.11
2023-01-30T11:29:00,mcc,65.99
2023-01-30T11:30:00,mcc,60.19
2023-01-30T11:31:00,mcc,58.69
2023-01-30T11:32:00,mcc,59.32
2023-01-30T11:33:00,mcc,64.04
2023-01-30T11:34:00,mcc,54.51
2023-01-30T11:35:00,mcc,70.88
2023-01-30T11:36:00,mcc,60.05
2023-01-30T11:37:00,mcc,58.30
2023-01-30T11:38:00,mcc,62.18
2023-01-30T11:39:00,mcc,60.05
2023-01-30T11:40:00,mcc,56.93
2023-01-30T11:41:00,mcc,59.26
2023-01-30T11:42:00,mcc,57.54
2023-01-30T11:43:00,mcc,58.49
2023-01-30T11:44:00,mcc,68.46
2023-01-30T11:45:00,mcc,58.49
2023-01-30T11:46:00,mcc,59.85
2023-01-30T11:47:00,mcc,81.35
2023-01-30T11:48:00,mcc,58.27
2023-01-30T11:49:00,mcc,58.53
2023-01-30T11:50:00,mcc,71.93
2023-01-30T11:51:00,mcc,61.63
2023-01-30T11:52:00,mcc,61.89
2023-01-30T11:53:00,mcc,63.86
2023-01-30T11:54:00,mcc,60.31
2023-01-30T11:55:00,mcc,58.92
2023-01-30T11:56:00,mcc,70.14
2023-01-30T11:57:00,mcc,60.99
2023-01-30T11:58:00,mcc,58.91
2023-01-30T11:59:00,mcc,57.77
2023-01-30T12:00:00,mcc,57.58
2023-01-30T12:01:00,mcc,59.01
2023-01-30T12:02:00,mcc,67.00
2023-01-30T12:03:00,mcc,64.86
2023-01-30T12:04:00,mcc,67.30
2023-01-30T12:05:00,mcc,70.21
2023-01-30T12:06:00,mcc,70.19
2023-01-30T12:07:00,mcc,66.73
2023-01-30T12:08:00,mcc,66.74
2023-01-30T12:09:00,mcc,74.71
2023-01-30T12:10:00,mcc,56.97
2023-01-30T12:11:00,mcc,59.77
2023-01-30T12:12:00,mcc,63.71
2023-01-30T12:13:00,mcc,64.69
2023-01-30T12:14:00,mcc,56.89
2023-01-30T12:15:00,mcc,66.49
2023-01-30T12:16:00,mcc,56.90
2023-01-30T12:17:00,mcc,60.60
2023-01-30T12:18:00,mcc,57.44
2023-01-30T12:19:00,mcc,57.52
2023-01-30T12:20:00,mcc,56.28
2023-01-30T12:21:00,mcc,64.71
2023-01-30T12:22:00,mcc,68.02
2023-01-30T12:23:00,mcc,57.70
2023-01-30T12:24:00,mcc,58.42
2023-01-30T12:25:00,mcc,59.64
2023-01-30T12:26:00,mcc,61.11
2023-01-30T12:27:00,mcc,67.28
2023-01-30T12:28:00,mcc,55.36
2023-01-30T12:29:00,mcc,56.55
2023-01-30T12:30:00,mcc,55.27
2023-01-30T12:31:00,mcc,61.82
2023-01-30T12:32:00,mcc,67.96
2023-01-30T12:33:00,mcc,67.17
2023-01-30T12:34:00,mcc,61.12
2023-01-30T12:35:00,mcc,57.85
2023-01-30T12:36:00,mcc,62.60
2023-01-30T12:37:00,mcc,58.15
2023-01-30T12:38:00,mcc,59.73
2023-01-30T12:39:00,mcc,58.32
2023-01-30T12:40:00,mcc,65.65
2023-01-30T12:41:00,mcc,59.18
2023-01-30T12:42:00,mcc,56.01
2023-01-30T12:43:00,mcc,57.45
2023-01-30T12:44:00,mcc,60.91
2023-01-30T12:45:00,mcc,58.25
2023-01-30T12:46:00,mcc,69.34
2023-01-30T12:47:00,mcc,60.29
2023-01-30T12:48:00,mcc,56.07
2023-01-30T12:49:00,mcc,57.29
2023-01-30T12:50:00,mcc,66.85
2023-01-30T12:51:00,mcc,57.58
2023-01-30T12:52:00,mcc,64.80
2023-01-30T12:53:00,mcc,55.49
2023-01-30T12:54:00,mcc,58.40
2023-01-30T12:55:00,mcc,58.94
2023-01-30T12:56:00,mcc,60.97
2023-01-30T12:57:00,mcc,60.17
2023-01-30T12:58:00,mcc,67.12
2023-01-30T12:59:00,mcc,62.14
2023-01-30T13:00:00,mcc,61.27
2023-01-30T13:01:00,mcc,59.10
2023-01-30T13:02:00,mcc,60.43
2023-01-30T13:03:00,mcc,59.20
2023-01-30T13:04:00,mcc,56.90
2023-01-30T13:05:00,mcc,63.90
2023-01-30T13:06:00,mcc,55.36
2023-01-30T13:07:00,mcc,65.30
2023-01-30T13:08:00,mcc,55.39
2023-01-30T13:09:00,mcc,57.00
2023-01-30T13:10:00,mcc,59.51
2023-01-30T13:11:00,mcc,66.35
2023-01-30T13:12:00,mcc,56.14
2023-01-30T13:13:00,mcc,57.40
2023-01-30T13:14:00,mcc,54.94
2023-01-30T13:15:00,mcc,59.05
2023-01-30T13:16:00,mcc,56.01
2023-01-30T13:17:00,mcc,67.14
2023-01-30T13:18:00,mcc,60.20